This demonstration page uses our WeatherBlox Daily Observations layout. Learn more.

Hourly Observations for June 24, 2019

Temp ( °F °C ) Dew Point ( °F °C ) Humidity (%) Winds ( mph kmh ) Pressure ( in mb ) Visibility ( mi km ) Precip ( " mm )
12:15 am 00:15 Mostly Cloudy 54 12.3 53 11.8 97 97 W 7 11 29.88 1012 10 16.09344 0 0
12:35 am 00:35 Partly Cloudy 55 12.5 54 12 97 97 W 7 11 29.88 1012 10 16.09344 0 0
12:55 am 00:55 Partly Cloudy 55 12.5 53 11.8 96 96 WNW 5 7 29.88 1012 10 16.09344 0 0
1:15 am 01:15 Partly Cloudy 54 12.2 53 11.6 96 96 WNW 6 9 29.88 1012 10 16.09344 0 0
1:35 am 01:35 Mostly Cloudy 55 12.6 53 11.8 95 95 WNW 6 9 29.85 1011 10 16.09344 0 0
1:55 am 01:55 Partly Cloudy 55 12.5 53 11.5 94 94 W 5 7 29.85 1011 10 16.09344 0 0
2:15 am 02:15 Clear 54 12 52 11.2 95 95 W 6 9 29.85 1011 10 16.09344 0 0
2:35 am 02:35 Clear 52 11.1 51 10.7 97 97 W 5 7 29.88 1012 10 16.09344 0 0
2:55 am 02:55 Partly Cloudy 52 11.2 52 10.9 98 98 W 7 11 29.88 1012 10 16.09344 0 0
3:15 am 03:15 Clear 52 11 51 10.7 98 98 WSW 7 11 29.88 1012 10 16.09344 0 0
3:35 am 03:35 Clear 51 10.6 51 10.5 99 99 W 7 11 29.88 1012 10 16.09344 0 0
3:55 am 03:55 Clear 51 10.4 51 10.4 100 100 W 8 13 29.88 1012 10 16.09344 0 0
4:15 am 04:15 Clear 51 10.5 51 10.5 100 100 W 8 13 29.88 1012 10 16.09344 0 0
4:35 am 04:35 Clear 51 10.5 50 10.2 98 98 W 8 13 29.85 1011 10 16.09344 0 0
4:55 am 04:55 Clear 51 10.5 50 10.2 98 98 W 7 11 29.88 1012 10 16.09344 0 0
5:15 am 05:15 Clear 51 10.5 50 10.2 98 98 W 7 11 29.85 1011 10 16.09344 0 0
5:35 am 05:35 Clear 51 10.7 50 10.1 96 96 W 6 9 29.85 1011 10 16.09344 0 0
5:55 am 05:55 Clear 50 10.2 50 9.8 97 97 W 6 9 29.85 1011 10 16.09344 0 0
6:15 am 06:15 Sunny 50 10 49 9.6 97 97 W 6 9 29.85 1011 10 16.09344 0 0
6:35 am 06:35 Sunny 50 10.1 50 9.9 99 99 W 7 11 29.85 1011 10 16.09344 0 0
6:55 am 06:55 Sunny 51 10.5 50 10 97 97 W 5 7 29.85 1011 10 16.09344 0 0
7:15 am 07:15 Sunny 52 11.1 50 10.2 94 94 W 6 9 29.83 1010 10 16.09344 0 0
7:35 am 07:35 Sunny 53 11.9 51 10.4 91 91 W 7 11 29.83 1010 10 16.09344 0 0
7:55 am 07:55 Sunny 55 12.7 51 10.6 87 87 W 8 13 29.83 1010 10 16.09344 0 0
8:15 am 08:15 Sunny 57 13.7 52 10.9 83 83 W 10 17 29.85 1011 10 16.09344 0 0
8:35 am 08:35 Sunny 58 14.7 52 11.1 79 79 W 10 17 29.8 1009 10 16.09344 0 0
8:55 am 08:55 Sunny 60 15.7 53 11.4 76 76 W 10 17 29.83 1010 10 16.09344 0 0
9:15 am 09:15 Sunny 62 16.8 53 11.4 71 71 W 10 17 29.83 1010 10 16.09344 0 0
9:35 am 09:35 Sunny 65 18.4 54 12.4 68 68 W 8 13 29.77 1008 10 16.09344 0 0
9:55 am 09:55 Sunny 67 19.2 54 12.3 64 64 WSW 10 17 29.77 1008 10 16.09344 0 0
10:15 am 10:15 Sunny 68 20.2 54 12.4 61 61 WSW 13 20 29.8 1009 10 16.09344 0 0
10:35 am 10:35 Sunny 68 20 55 12.7 63 63 WSW 13 20 29.8 1009 10 16.09344 0 0
10:55 am 10:55 Sunny 69 20.4 55 12.9 62 62 W 10 17 29.8 1009 10 16.09344 0 0
11:15 am 11:15 Sunny 70 21.1 56 13.3 61 61 SW 9 15 29.8 1009 10 16.09344 0 0
11:35 am 11:35 Sunny 71 21.8 57 13.8 61 61 WSW 9 15 29.74 1007 10 16.09344 0 0
11:55 am 11:55 Sunny 72 22 56 13.5 59 59 WSW 8 13 29.74 1007 10 16.09344 0 0
12:15 pm 12:15 Sunny 73 22.5 56 13.2 56 56 SW 7 11 29.74 1007 10 16.09344 0 0
12:35 pm 12:35 Sunny 74 23.4 57 14 56 56 SW 5 7 29.74 1007 10 16.09344 0 0
12:55 pm 12:55 Sunny 74 23.6 54 12.4 50 50 WSW 6 9 29.74 1007 10 16.09344 0 0
1:15 pm 13:15 Sunny 75 24.1 55 13 50 50 SSW 9 15 29.74 1007 10 16.09344 0 0
1:35 pm 13:35 Sunny 76 24.4 55 12.7 48 48 WSW 9 15 29.71 1006 10 16.09344 0 0
1:55 pm 13:55 Sunny 77 25.1 56 13.2 48 48 WSW 6 9 29.68 1005 10 16.09344 0 0
2:15 pm 14:15 Sunny 78 25.4 54 12.3 44 44 WSW 9 15 29.68 1005 10 16.09344 0 0
2:35 pm 14:35 Sunny 78 25.8 54 12.2 43 43 SW 7 11 29.68 1005 10 16.09344 0 0
2:55 pm 14:55 Sunny 80 26.4 54 12.3 42 42 SW 9 15 29.68 1005 10 16.09344 0 0
3:15 pm 15:15 Sunny 79 26.3 53 11.4 39 39 SSW 12 19 29.68 1005 10 16.09344 0 0
3:35 pm 15:35 Sunny 80 26.8 54 12 40 40 SW 6 9 29.68 1005 10 16.09344 0 0
3:55 pm 15:55 Sunny 81 27.3 53 11.8 38 38 SW 10 17 29.68 1005 10 16.09344 0 0
4:15 pm 16:15 Sunny 82 27.5 53 11.6 37 37 SSW 9 15 29.65 1004 10 16.09344 0 0
4:35 pm 16:35 Sunny 81 27.4 53 11.6 37 37 WSW 8 13 29.65 1004 10 16.09344 0 0
4:55 pm 16:55 Sunny 83 28.1 53 11.8 36 36 SSW 8 13 29.65 1004 10 16.09344 0 0
5:15 pm 17:15 Sunny 82 28 53 11.4 36 36 SW 9 15 29.65 1004 10 16.09344 0 0
5:35 pm 17:35 Sunny 83 28.2 54 12 37 37 WSW 9 15 29.65 1004 10 16.09344 0 0
5:55 pm 17:55 Sunny 83 28.2 53 11.6 36 36 SW 7 11 29.65 1004 10 16.09344 0 0
6:15 pm 18:15 Sunny 83 28.3 52 10.9 34 34 WSW 7 11 29.65 1004 10 16.09344 0 0
6:35 pm 18:35 Sunny 83 28.2 52 11.1 35 35 WSW 8 13 29.65 1004 10 16.09344 0 0
6:55 pm 18:55 Sunny 83 28.2 51 10.6 33 33 SW 5 7 29.65 1004 10 16.09344 0 0
7:15 pm 19:15 Sunny 82 28 53 11.5 36 36 SW 6 9 29.65 1004 10 16.09344 0 0
7:35 pm 19:35 Sunny 82 28 53 11.7 36 36 SSW 3 6 29.65 1004 10 16.09344 0 0
7:55 pm 19:55 Sunny 82 27.8 53 11.8 37 37 Calm 29.65 1004 10 16.09344 0 0
8:15 pm 20:15 Sunny 80 26.9 59 14.8 48 48 SSE 3 6 29.65 1004 10 16.09344 0 0
8:35 pm 20:35 Sunny 79 25.9 60 15.6 53 53 SSE 5 7 29.65 1004 10 16.09344 0 0
8:55 pm 20:55 Sunny 76 24.6 60 15.3 56 56 SSE 5 7 29.65 1004 10 16.09344 0 0
9:15 pm 21:15 Clear 74 23.1 60 15.4 62 62 SSE 5 7 29.68 1005 10 16.09344 0 0
9:35 pm 21:35 Clear 72 22 58 14.6 63 63 SSE 5 7 29.68 1005 10 16.09344 0 0
9:55 pm 21:55 Clear 70 21.1 58 14.5 66 66 SSE 5 7 29.68 1005 10 16.09344 0 0
10:15 pm 22:15 Clear 69 20.8 58 14.5 67 67 SSE 6 9 29.71 1006 10 16.09344 0 0
10:35 pm 22:35 Clear 69 20.6 58 14.3 67 67 SSE 7 11 29.71 1006 10 16.09344 0 0
10:55 pm 22:55 Clear 68 20 56 13.5 66 66 SSE 6 9 29.71 1006 10 16.09344 0 0
11:15 pm 23:15 Clear 66 19 57 13.9 72 72 SSE 5 7 29.71 1006 10 16.09344 0 0
11:35 pm 23:35 Clear 66 18.8 57 13.7 72 72 SSE 7 11 29.71 1006 10 16.09344 0 0
11:55 pm 23:55 Clear 65 18.6 56 13.6 73 73 Calm 29.71 1006 10 16.09344 0 0

Powered by AerisWeather